Torna al catalogo

STARLINK-36142

AttivoComunicazioniVLEO
NORAD 66981·PAYLOAD·🇺🇸 United States

Lanciato Dec 8, 2025 da Cape Canaveral Space Force Station

Loading…

Prossimi Passaggi (prossime 24 ore)

TLE

AggiornatoSource: CelesTrak SupGP

Epoca: Sep 15, 2026, 04:01 UTC

1 66981C 25288Y   26258.16784722  .00009164  00000+0  33180-3 0  2580
2 66981  43.0042  33.5073 0001760 268.3926 109.8293 15.27584127    11

Traccia STARLINK-36142 in tempo reale con AllMySat

Download on the App Store